Weather History for Ottumwa, IA

Change the Weather History Date:

Tuesday, December 3, 2013

  Actual Average Record
Temperature  
Mean Temperature 42 °F 30 °F  
Max Temperature 49 °F 39 °F 71 °F (2012)
Min Temperature 35 °F 21 °F -8 °F (1929)
Degree Days  
Heating Degree Days 23 35  
Month to date heating degree days 78 103  
Since 1 July heating degree days 1408 1401  
Cooling Degree Days 0 0  
Month to date cooling degree days 0 0  
Year to date cooling degree days 1014 938  
Moisture  
Dew Point 38 °F    
Average Humidity 90    
Maximum Humidity 100    
Minimum Humidity 80    
Precipitation  
Precipitation T in 0.05 in 1.09 in (2011)
Month to date precipitation T 0.17  
Year to date precipitation 35.86 35.87  
Sea Level Pressure  
Sea Level Pressure 29.60 in    
Wind  
Wind Speed 5 mph (ESE)    
Max Wind Speed 12 mph    
Max Gust Speed 13 mph    
Visibility 2 miles    
Events Fog , Snow    
T = Trace of Precipitation, MM = Missing Value Source: NWS Daily Summary

Daily Weather History Graph

Daily Weather History Graph

Search for Another Location

Airport:

Trip Planner

Search our weather history database for the weather conditions in past years. The results will help you decide how hot, cold, wet, or windy it might be!

Date:

Astronomy

Dec. 03, 2013 Rise Set
Actual Time 7:17 AM CST 4:41 PM CST
Civil Twilight 6:47 AM CST 5:12 PM CST
Nautical Twilight 6:12 AM CST 5:46 PM CST
Astronomical Twilight 5:39 AM CST 6:19 PM CST
Moon 7:47 AM CST (12/3) 5:45 PM CST (12/3)
Length of Visible Light 10h 25m
Length of Day
9h 23m
New Moon, 1% of the Moon is Illuminated
Dec 3
New Moon
Dec 9
First Quarter
Dec 17
Full
Dec 25
Last Quarter
Jan 1
New

Hourly Weather History & Observations

Time (CST) Temp. Windchill Dew Point Humidity Pressure Visibility Wind Dir Wind Speed Gust Speed Precip Events Conditions
12:53 AM 37.9 °F 30.9 °F 36.0 °F 93% 29.59 in 4.0 mi South 10.4 mph - N/A   Clear
1:44 AM 37.4 °F 32.1 °F 35.6 °F 93% 29.57 in 2.5 mi South 6.9 mph - N/A   Clear
1:53 AM 37.0 °F 31.6 °F 36.0 °F 96% 29.59 in 2.5 mi South 6.9 mph - N/A   Clear
2:53 AM 39.0 °F 36.8 °F 37.9 °F 96% 29.60 in 2.5 mi SSE 3.5 mph - N/A   Overcast
3:53 AM 37.9 °F 35.5 °F 37.0 °F 97% 29.60 in 1.8 mi SSE 3.5 mph - N/A   Mostly Cloudy
4:02 AM 37.4 °F - 37.4 °F 100% 29.59 in 1.0 mi Calm Calm - N/A   Mostly Cloudy
4:05 AM 37.4 °F - 37.4 °F 100% 29.59 in 0.5 mi Calm Calm - N/A Fog Fog
4:14 AM 35.6 °F - 35.6 °F 100% 29.59 in 0.2 mi Calm Calm - N/A Fog Fog
4:33 AM 37.4 °F 32.8 °F 35.6 °F 93% 29.58 in 0.5 mi SE 5.8 mph - N/A Fog Fog
4:53 AM 37.9 °F 32.7 °F 37.0 °F 97% 29.59 in 0.5 mi SE 6.9 mph - N/A Fog Fog
5:00 AM 37.4 °F 32.1 °F 37.4 °F 100% 29.57 in 0.2 mi SE 6.9 mph - N/A Fog Fog
5:07 AM 37.4 °F 32.1 °F 37.4 °F 100% 29.58 in 0.2 mi SE 6.9 mph - N/A Fog Fog
5:53 AM 39.0 °F 36.8 °F 39.0 °F 100% 29.59 in 0.2 mi ESE 3.5 mph - N/A Fog Fog
6:53 AM 37.9 °F 34.4 °F 37.9 °F 100% 29.58 in 0.2 mi SE 4.6 mph - N/A Fog Fog
7:22 AM 37.4 °F 32.8 °F 37.4 °F 100% 29.57 in 0.2 mi SSE 5.8 mph - N/A Fog Fog
7:53 AM 37.9 °F 33.5 °F 37.0 °F 97% 29.58 in 0.2 mi SSE 5.8 mph - N/A Fog Fog
8:53 AM 39.0 °F 34.0 °F 37.9 °F 96% 29.58 in 0.5 mi SE 6.9 mph - N/A Fog Fog
9:14 AM 39.2 °F 35.9 °F 37.4 °F 93% 29.57 in 1.0 mi SSE 4.6 mph - N/A   Overcast
9:53 AM 39.0 °F 34.0 °F 39.0 °F 100% 29.62 in 1.2 mi SE 6.9 mph - N/A   Overcast
10:33 AM 41.0 °F 36.4 °F 39.2 °F 93% 29.60 in 2.0 mi SSE 6.9 mph - N/A   Overcast
10:50 AM 41.0 °F 35.8 °F 39.2 °F 93% 29.59 in 2.5 mi SSE 8.1 mph - N/A   Overcast
10:53 AM 41.0 °F 35.2 °F 39.9 °F 96% 29.61 in 2.5 mi SSE 9.2 mph - N/A   Overcast
11:05 AM 41.0 °F 35.8 °F 39.2 °F 93% 29.59 in 3.0 mi SSE 8.1 mph - N/A   Overcast
11:53 AM 43.0 °F 39.5 °F 41.0 °F 93% 29.58 in 4.0 mi SSE 5.8 mph - N/A   Overcast
12:04 PM 42.8 °F - 41.0 °F 93% 29.57 in 5.0 mi Calm Calm - N/A   Mostly Cloudy
12:53 PM 45.0 °F - 42.1 °F 90% 29.57 in 5.0 mi Calm Calm - N/A   Overcast
1:53 PM 48.0 °F - 42.1 °F 80% 29.56 in 6.0 mi SSE 6.9 mph - N/A   Haze
2:06 PM 48.2 °F - 42.8 °F 82% 29.54 in 6.0 mi SE 8.1 mph - N/A   Haze
2:53 PM 48.0 °F - 42.1 °F 80% 29.54 in 6.0 mi SE 8.1 mph - N/A   Haze
3:53 PM 46.0 °F 43.9 °F 42.1 °F 86% 29.55 in 5.0 mi SE 4.6 mph - N/A   Clear
4:53 PM 43.0 °F - 41.0 °F 93% 29.59 in 4.0 mi Calm Calm - N/A   Clear
5:53 PM 39.9 °F 35.1 °F 37.9 °F 93% 29.62 in 3.0 mi North 6.9 mph - N/A   Clear
6:10 PM 39.2 °F 33.0 °F 39.2 °F 100% 29.61 in 2.5 mi NNE 9.2 mph - N/A   Clear
6:28 PM 41.0 °F 35.2 °F 39.2 °F 93% 29.60 in 3.0 mi NE 9.2 mph - N/A   Clear
6:53 PM 39.9 °F 34.5 °F 39.0 °F 97% 29.62 in 2.5 mi NNE 8.1 mph - N/A   Clear
7:05 PM 42.8 °F 38.6 °F 39.2 °F 87% 29.61 in 3.0 mi NE 6.9 mph - N/A   Clear
7:22 PM 41.0 °F 37.1 °F 39.2 °F 93% 29.62 in 2.5 mi East 5.8 mph - N/A   Scattered Clouds
7:53 PM 41.0 °F 37.1 °F 39.9 °F 96% 29.62 in 3.0 mi ESE 5.8 mph - N/A   Clear
8:00 PM 39.2 °F 35.9 °F 39.2 °F 100% 29.61 in 2.5 mi ESE 4.6 mph - N/A   Clear
8:40 PM 37.4 °F - 37.4 °F 100% 29.61 in 1.2 mi Calm Calm - N/A   Clear
8:46 PM 35.6 °F 32.8 °F 35.6 °F 100% 29.62 in 0.2 mi NW 3.5 mph - N/A Fog Fog
8:53 PM 37.0 °F - 36.0 °F 96% 29.63 in 0.2 mi Calm Calm - N/A Fog Fog
9:13 PM 35.6 °F 29.9 °F 35.6 °F 100% 29.62 in 0.2 mi NNW 6.9 mph - N/A Fog Fog
9:24 PM 35.6 °F 29.9 °F 33.8 °F 93% 29.62 in 0.2 mi North 6.9 mph - 0.00 in Fog , Snow Light Snow
9:46 PM 37.4 °F 32.8 °F 35.6 °F 93% 29.61 in 0.5 mi North 5.8 mph - 0.00 in Fog , Snow Light Snow
9:53 PM 37.0 °F 32.4 °F 36.0 °F 96% 29.63 in 0.5 mi North 5.8 mph - 0.00 in Fog Fog
10:11 PM 37.4 °F 32.8 °F 35.6 °F 93% 29.62 in 1.2 mi North 5.8 mph - N/A   Overcast
10:39 PM 37.4 °F 33.8 °F 35.6 °F 93% 29.62 in 1.8 mi North 4.6 mph - N/A   Overcast
10:53 PM 37.0 °F 34.5 °F 36.0 °F 96% 29.64 in 1.5 mi NNW 3.5 mph - N/A   Overcast
11:05 PM 37.4 °F 34.9 °F 35.6 °F 93% 29.62 in 1.5 mi NNW 3.5 mph - N/A   Overcast
11:18 PM 35.6 °F - 35.6 °F 100% 29.63 in 1.5 mi Calm Calm - N/A   Overcast
11:37 PM 35.6 °F 32.8 °F 33.8 °F 93% 29.63 in 0.8 mi NW 3.5 mph - N/A   Overcast
11:48 PM 35.6 °F 32.8 °F 33.8 °F 93% 29.63 in 0.5 mi NW 3.5 mph - N/A Fog Fog
11:53 PM 36.0 °F 33.3 °F 35.1 °F 97% 29.65 in 0.5 mi NW 3.5 mph - N/A Fog Fog